Flag for U.S.A. Weather past 2 weeks in Lawrence, Kansas, U.S.A.

Now
29 °F

Overcast.


Feels Like: 25 °F
Forecast: 31 / 59 °F
Wind: 3 mph from North

Location: Lawrence Municipal Airport

Current Time: Jan 25, 2015 at 10:32:53 PM

Latest Report: Jan 25, 2015 at 9:52 PM


Visibility: 10 mi

Pressure: 30.14 "Hg

Humidity: 89%

Dew point: 26 °F

Location of LawrenceLocation

Historic Weather in Lawrence — Graph

°F

Lawrence temperature yesterday

Maximum temperature yesterday: 61 °F (at 1:52 PM)
Minimum temperature yesterday: 22 °F (at 2:52 AM)
Average temperature yesterday: 42 °F

Past Weeks' High & Low Weather Summary

 TemperatureHumidityPressure
High67 °F (Jan 19, 2:52 PM)92% (Jan 11, 9:52 PM)30.74 "Hg (Jan 11, 9:52 PM)
Low4 °F (Jan 13, 5:52 AM)21% (Jan 16, 3:52 PM)29.67 "Hg (Jan 25, 1:52 AM)
Average33 °F64%30.18 "Hg
* Reported Jan 10 8:52 PM — Jan 25 8:52 PM, Lawrence, Weather by CustomWeather, © 2014

Note: Actual official high and low records may vary slightly from our data, if they occured in-between our weather recording intervals... More about our weather records

Advertising

Lawrence weather history for previous 24 hours

 ConditionsComfort  
Time TempWeatherWind HumidityBarometerVisibility
8:52 PM
Jan 25
30 °FPassing clouds.3 mph89%30.13 "Hg10 mi
7:52 PM31 °FClear.6 mph85%30.12 "Hg10 mi
7:00 PM38 °FMostly cloudy.12 mph73%30.11 "Hg10 mi
6:52 PM38 °FMostly cloudy.10 mph73%30.12 "Hg10 mi
5:52 PM39 °FOvercast.18 mph76%30.09 "Hg10 mi
4:52 PM39 °FOvercast.21 mph76%30.06 "Hg10 mi
3:52 PM38 °FOvercast.18 mph79%30.01 "Hg10 mi
2:52 PM38 °FOvercast.22 mph83%29.97 "Hg9 mi
1:52 PM39 °FOvercast.24 mph79%29.93 "Hg9 mi
12:52 PM39 °FOvercast.18 mph79%29.90 "Hg7 mi
11:52 AM38 °FOvercast.23 mph83%29.88 "Hg9 mi
10:52 AM38 °FLight rain. Overcast.24 mph83%29.85 "Hg8 mi
9:52 AM38 °FOvercast.25 mph79%29.82 "Hg10 mi
8:52 AM38 °FOvercast.26 mph76%29.79 "Hg10 mi
7:52 AM38 °FOvercast.18 mph79%29.76 "Hg10 mi
6:52 AM41 °FOvercast.26 mph76%29.73 "Hg10 mi
5:52 AM43 °FOvercast.18 mph76%29.70 "Hg10 mi
4:52 AM45 °FMostly cloudy.21 mph74%29.67 "Hg10 mi
3:52 AM44 °FMostly cloudy.9 mph79%29.67 "Hg10 mi
2:52 AM44 °FPassing clouds.13 mph76%29.67 "Hg10 mi
1:52 AM46 °FMostly cloudy.14 mph79%29.67 "Hg10 mi
12:52 AM46 °FLight rain. Mostly cloudy.8 mph83%29.68 "Hg10 mi
11:52 PM
Jan 24
47 °FOvercast.9 mph80%29.70 "Hg10 mi
10:52 PM47 °FMostly cloudy.8 mph80%29.70 "Hg10 mi
Weather by CustomWeather, © 2014

See weather overviewHow to use our weather pages